AC0TG-1 Weather Reports


time (UTC)temp
C
wind
direction
speed
KPH
gust
KPH
rain 1hr
cm
rain 24hr
cm
rain mn
cm
humidity
%
barometer
mb
20220627204150 34 90 17.7 17.7 0.00 0.00 0.00 45 1021.3
20220627203650 33 45 1.6 12.9 0.00 0.00 0.00 46 1021.6
20220627203150 34 45 12.9 12.9 0.00 0.00 0.00 46 1021.6
20220627202651 34 45 9.7 17.7 0.00 0.00 0.00 45 1021.6
20220627202150 35 67 17.7 17.7 0.00 0.00 0.00 44 1021.6
20220627201650 35 67 9.7 9.7 0.00 0.00 0.00 44 1021.6
20220627201151 35 45 8.0 8.0 0.00 0.00 0.00 45 1021.6
20220627200651 34 45 3.2 9.7 0.00 0.00 0.00 46 1021.6
20220627200151 35 45 9.7 12.9 0.00 0.00 0.00 45 1022.0
20220627195651 35 67 9.7 9.7 0.00 0.00 0.00 45 1022.0
20220627195151 35 45 9.7 11.3 0.00 0.00 0.00 44 1022.0
20220627194651 35 0 11.3 11.3 0.00 0.00 0.00 47 1022.0
20220627194151 34 22 9.7 9.7 0.00 0.00 0.00 45 1022.0
20220627193651 35 0 4.8 4.8 0.00 0.00 0.00 46 1022.3
20220627193151 35 45 4.8 12.9 0.00 0.00 0.00 46 1022.3
20220627192651 34 22 12.9 12.9 0.00 0.00 0.00 47 1022.3
20220627192151 34 45 8.0 12.9 0.00 0.00 0.00 48 1022.3
20220627191651 33 45 9.7 12.9 0.00 0.00 0.00 50 1022.3
20220627191151 33 67 12.9 14.5 0.00 0.00 0.00 49 1022.3
20220627190651 33 22 14.5 16.1 0.00 0.00 0.00 48 1022.3
20220627190151 33 22 16.1 16.1 0.00 0.00 0.00 51 1022.3
20220627185651 33 22 11.3 11.3 0.00 0.00 0.00 51 1022.6
20220627185151 33 22 9.7 9.7 0.00 0.00 0.00 50 1022.6
20220627184651 32 22 8.0 8.0 0.00 0.00 0.00 54 1022.6
20220627184151 31 45 8.0 9.7 0.00 0.00 0.00 54 1022.6
20220627183651 31 45 9.7 11.3 0.00 0.00 0.00 54 1022.6
20220627183151 31 45 11.3 11.3 0.00 0.00 0.00 54 1022.6
20220627182651 31 45 6.4 8.0 0.00 0.00 0.00 54 1022.6
20220627182151 31 45 8.0 8.0 0.00 0.00 0.00 54 1022.6
20220627181651 31 67 4.8 11.3 0.00 0.00 0.00 54 1023.0
20220627181151 31 45 11.3 11.3 0.00 0.00 0.00 53 1023.0
20220627180651 32 22 9.7 9.7 0.00 0.00 0.00 53 1023.0
20220627180151 32 45 6.4 11.3 0.00 0.00 0.00 53 1023.0
20220627175651 31 67 9.7 9.7 0.00 13.21 0.00 55 1023.0
20220627175151 31 45 9.7 11.3 0.00 13.21 0.00 54 1023.0
20220627174651 32 45 9.7 11.3 0.00 13.21 0.00 52 1023.0
20220627174151 32 45 11.3 12.9 0.00 13.21 0.00 51 1023.0
20220627173651 33 90 11.3 11.3 0.00 13.21 0.00 50 1023.0
20220627173329 33 45 9.7 11.3 0.00 13.21 0.00 51 1023.0
20220627173151 33 45 9.7 11.3 0.00 13.21 0.00 51 1023.0
20220627172651 32 135 11.3 11.3 0.00 13.21 0.00 52 1023.0
20220627172151 33 45 9.7 14.5 0.00 13.21 0.00 51 1023.0
20220627171651 33 90 8.0 11.3 0.00 13.21 0.00 49 1023.0
20220627171151 34 45 6.4 16.1 0.00 13.21 0.00 49 1023.0
20220627170651 33 90 9.7 16.1 0.00 13.21 0.00 50 1023.0
20220627170236 33 45 12.9 12.9 0.00 13.21 0.00 50 1023.3
20220627170151 33 45 12.9 12.9 0.00 13.21 0.00 50 1023.3
20220627165651 33 135 12.9 16.1 0.00 13.21 0.00 51 1023.0
20220627165151 33 112 16.1 16.1 0.00 13.21 0.00 53 1023.0
20220627164651 32 45 11.3 12.9 0.00 13.21 0.00 54 1023.0
20220627164151 32 135 12.9 12.9 0.00 13.21 0.00 54 1023.0
20220627163651 32 67 8.0 19.3 0.00 13.21 0.00 53 1023.0
20220627163151 32 112 19.3 19.3 0.00 13.21 0.00 53 1023.0
20220627162651 32 112 19.3 20.9 0.00 13.21 0.00 54 1023.0
20220627162151 32 90 12.9 14.5 0.00 13.21 0.00 53 1023.0
20220627161651 31 90 9.7 12.9 0.00 13.21 0.00 56 1023.0
20220627161151 31 45 12.9 12.9 0.00 13.21 0.00 56 1023.0
20220627160651 31 45 11.3 14.5 0.00 13.21 0.00 55 1023.0
20220627160151 31 112 14.5 19.3 0.00 13.21 0.00 55 1023.3
20220627155651 31 112 9.7 20.9 0.00 14.43 0.00 57 1023.3
20220627155151 30 67 17.7 20.9 0.00 14.43 0.00 57 1023.3
20220627154651 30 45 11.3 22.5 0.00 14.43 0.00 60 1023.3
20220627154151 29 112 22.5 22.5 0.00 14.43 0.00 61 1023.0
20220627153651 29 112 14.5 14.5 0.00 14.43 0.00 61 1023.3
20220627153151 29 112 14.5 25.7 0.00 14.43 0.00 61 1023.3
20220627152651 28 135 24.1 24.1 0.00 14.43 0.00 62 1023.3
20220627152151 28 67 16.1 17.7 0.00 14.43 0.00 63 1023.3
20220627151651 28 67 8.0 11.3 0.00 14.43 0.00 62 1023.3
20220627151151 28 67 6.4 12.9 0.00 14.43 0.00 62 1023.7
20220627150651 28 67 12.9 12.9 0.00 14.43 0.00 60 1023.7
20220627150151 28 90 12.9 14.5 0.00 14.43 0.00 60 1023.7
20220627145651 29 67 12.9 12.9 0.00 2.26 0.00 60 1023.3
20220627145151 28 45 8.0 14.5 0.00 2.26 0.00 60 1023.7
20220627144651 29 90 11.3 12.9 0.00 2.26 0.00 59 1023.3
20220627144151 30 67 8.0 14.5 0.00 2.26 0.00 58 1023.7
20220627143651 30 67 8.0 12.9 0.00 2.26 0.00 57 1023.7
20220627143151 28 45 8.0 11.3 0.00 2.26 0.00 59 1023.3
20220627142651 28 45 11.3 19.3 0.00 2.26 0.00 57 1023.3
20220627142151 28 67 19.3 19.3 0.00 2.26 0.00 57 1023.7
20220627141651 28 90 12.9 12.9 0.00 2.26 0.00 58 1023.3
20220627141151 28 45 11.3 11.3 0.00 2.26 0.00 57 1023.3
20220627140652 28 45 8.0 19.3 0.00 2.26 0.00 58 1023.3
20220627140152 27 22 11.3 11.3 0.00 2.26 0.00 57 1023.3
20220627135652 27 67 11.3 11.3 0.00 12.60 0.00 57 1023.0
20220627135152 26 45 9.7 12.9 0.00 12.60 0.00 58 1023.3
20220627134652 26 22 8.0 12.9 0.00 12.60 0.00 59 1023.3
20220627134152 25 45 11.3 12.9 0.00 12.60 0.00 58 1023.0
20220627133652 25 45 12.9 12.9 0.00 12.60 0.00 58 1023.0
20220627133152 25 22 11.3 11.3 0.00 12.60 0.00 57 1023.3
20220627132652 25 22 8.0 8.0 0.00 12.60 0.00 57 1023.3
20220627132152 25 45 6.4 9.7 0.00 12.60 0.00 58 1023.0
20220627131652 25 22 8.0 8.0 0.00 12.60 0.00 57 1023.0
20220627131152 25 22 6.4 9.7 0.00 12.60 0.00 57 1023.3
20220627130652 25 45 9.7 11.3 0.00 12.60 0.00 58 1023.0
20220627130152 24 0 11.3 11.3 0.00 12.60 0.00 57 1023.0
20220627125652 24 22 9.7 11.3 0.00 12.60 0.00 57 1023.0
20220627125152 24 22 3.2 11.3 0.00 12.60 0.00 57 1023.0
20220627124652 25 45 11.3 11.3 0.00 12.60 0.00 55 1023.0
20220627124152 25 0 9.7 9.7 0.00 12.60 0.00 54 1023.0
20220627123652 25 22 9.7 9.7 0.00 12.60 0.00 54 1022.6
20220627123152 25 22 9.7 11.3 0.00 12.60 0.00 55 1022.6
20220627122652 23 22 9.7 9.7 0.00 12.60 0.00 56 1022.6
20220627122152 23 22 6.4 11.3 0.00 12.60 0.00 56 1022.3
20220627121652 23 22 9.7 9.7 0.00 12.60 0.00 58 1022.6
20220627121152 23 22 9.7 11.3 0.00 12.60 0.00 58 1022.6
20220627120652 23 0 11.3 11.3 0.00 12.60 0.00 58 1022.6
20220627120152 22 22 8.0 9.7 0.00 12.60 0.00 60 1022.6
20220627115652 22 22 4.8 4.8 0.00 12.60 0.00 61 1022.3
20220627115152 21 0 4.8 4.8 0.00 12.60 0.00 62 1022.3
20220627114652 21 22 4.8 8.0 0.00 12.60 0.00 63 1022.3
20220627114152 21 22 8.0 8.0 0.00 12.60 0.00 64 1022.3
20220627113652 20 22 6.4 8.0 0.00 12.60 0.00 65 1022.3
20220627113152 20 22 3.2 6.4 0.00 12.60 0.00 66 1022.3
20220627112652 20 0 6.4 6.4 0.00 12.60 0.00 66 1022.3
20220627112152 20 0 4.8 6.4 0.00 12.60 0.00 66 1022.3
20220627111652 20 22 3.2 6.4 0.00 12.60 0.00 66 1022.3
20220627111152 20 0 6.4 6.4 0.00 12.60 0.00 66 1022.3
20220627110652 20 0 6.4 6.4 0.00 12.60 0.00 66 1022.3
20220627110152 20 22 1.6 3.2 0.00 12.60 0.00 66 1022.0
20220627110109 20 22 3.2 4.8 0.00 12.60 0.00 66 1022.0
20220627105652 20 22 3.2 4.8 0.00 12.60 0.00 66 1022.0
20220627105152 20 0 3.2 6.4 0.00 12.60 0.00 66 1022.0
20220627104652 20 22 6.4 6.4 0.00 12.60 0.00 66 1022.0
20220627104152 20 0 6.4 8.0 0.00 12.60 0.00 66 1022.0
20220627103652 20 22 6.4 6.4 0.00 12.60 0.00 66 1022.0
20220627103152 20 0 4.8 8.0 0.00 12.60 0.00 66 1022.0
20220627102652 20 22 8.0 8.0 0.00 12.60 0.00 66 1022.0
20220627102152 20 0 4.8 4.8 0.00 12.60 0.00 66 1022.3
20220627101652 20 0 1.6 3.2 0.00 12.60 0.00 66 1022.0
20220627101152 20 0 3.2 3.2 0.00 12.60 0.00 66 1022.0
20220627100652 20 337 1.6 4.8 0.00 12.60 0.00 67 1022.0
20220627100152 20 0 4.8 9.7 0.00 12.60 0.00 67 1022.0
20220627095652 20 0 4.8 9.7 0.00 12.60 0.00 67 1022.0
20220627095152 21 0 3.2 4.8 0.00 12.60 0.00 67 1022.3
20220627094652 21 0 4.8 4.8 0.00 12.60 0.00 67 1022.0
20220627094152 21 337 1.6 1.6 0.00 12.60 0.00 67 1022.0
20220627093652 21 0 0.0 3.2 0.00 12.60 0.00 67 1022.0
20220627093152 21 0 0.0 0.0 0.00 12.60 0.00 67 1022.0
20220627092652 21 0 0.0 3.2 0.00 12.60 0.00 67 1022.0
20220627092152 21 337 0.0 1.6 0.00 12.60 0.00 67 1022.0
20220627091652 21 22 1.6 6.4 0.00 12.60 0.00 67 1022.0
20220627091152 21 22 1.6 3.2 0.00 12.60 0.00 67 1022.0
20220627090652 21 0 1.6 6.4 0.00 12.60 0.00 68 1022.0
20220627090153 21 0 3.2 3.2 0.00 12.60 0.00 68 1022.0
20220627085652 21 22 3.2 4.8 0.00 12.60 0.00 68 1022.0
20220627085152 21 0 3.2 3.2 0.00 12.60 0.00 68 1022.0
20220627084652 21 0 3.2 3.2 0.00 12.60 0.00 68 1022.0
20220627084152 21 0 3.2 3.2 0.00 12.60 0.00 68 1022.0
20220627083652 22 0 3.2 3.2 0.00 12.60 0.00 69 1022.0
20220627083152 22 0 3.2 8.0 0.00 12.60 0.00 69 1022.0
20220627082652 22 0 3.2 6.4 0.00 12.60 0.00 69 1022.0
20220627082152 22 0 3.2 3.2 0.00 12.60 0.00 69 1022.0
20220627081652 22 0 3.2 6.4 0.00 12.60 0.00 69 1022.0
20220627081153 22 0 0.0 6.4 0.00 12.60 0.00 69 1022.0
20220627080652 22 0 4.8 6.4 0.00 12.60 0.00 69 1022.0
20220627080153 22 0 3.2 8.0 0.00 12.60 0.00 69 1021.6
20220627075653 22 337 8.0 8.0 0.00 12.60 0.00 69 1022.0
20220627075153 22 0 6.4 8.0 0.00 12.60 0.00 70 1021.6
20220627074653 22 0 8.0 8.0 0.00 12.60 0.00 70 1021.6
20220627074153 22 0 8.0 8.0 0.00 12.60 0.00 70 1021.6
20220627073653 22 0 4.8 4.8 0.00 12.60 0.00 71 1021.6
20220627073153 22 0 4.8 11.3 0.00 12.60 0.00 72 1021.6
20220627072653 22 22 11.3 11.3 0.00 12.60 0.00 72 1021.6
20220627072153 22 0 1.6 3.2 0.00 12.60 0.00 73 1021.6
20220627071653 22 0 3.2 4.8 0.00 12.60 0.00 73 1021.6
20220627071153 23 337 3.2 4.8 0.00 12.60 0.00 73 1021.6
20220627070653 23 337 4.8 4.8 0.00 12.60 0.00 73 1021.3
20220627070153 23 0 4.8 4.8 0.00 12.60 0.00 72 1021.6
20220627065653 23 22 1.6 3.2 0.00 12.60 0.00 72 1021.6
20220627065153 23 22 1.6 1.6 0.00 12.60 0.00 72 1021.6
20220627064653 23 22 0.0 3.2 0.00 12.60 0.00 71 1022.0
20220627064153 23 22 3.2 3.2 0.00 12.60 0.00 71 1022.0
20220627063653 23 22 1.6 4.8 0.00 12.60 0.00 72 1021.6
20220627063153 23 22 4.8 6.4 0.00 12.60 0.00 72 1021.6
20220627062653 23 0 6.4 6.4 0.00 12.60 0.00 71 1021.6
20220627062153 23 0 4.8 4.8 0.00 12.60 0.00 71 1021.6
20220627061653 23 0 1.6 1.6 0.00 12.60 0.00 70 1021.6
20220627061153 23 0 1.6 4.8 0.00 12.60 0.00 70 1021.6
20220627060653 24 337 3.2 3.2 0.00 12.60 0.00 69 1021.6
20220627060153 24 0 0.0 0.0 0.00 12.60 0.00 69 1021.6
20220627055653 24 0 0.0 0.0 0.00 13.39 0.00 69 1021.6
20220627055153 25 22 0.0 0.0 0.00 13.39 0.00 68 1021.6
20220627054653 25 22 0.0 1.6 0.00 13.39 0.00 68 1021.6
20220627054153 25 45 1.6 3.2 0.00 13.39 0.00 68 1021.6
20220627053653 25 45 1.6 3.2 0.00 13.39 0.00 68 1021.6
20220627053153 25 45 1.6 1.6 0.00 13.39 0.00 67 1021.6
20220627052653 25 45 1.6 6.4 0.00 13.39 0.00 67 1021.6
20220627052153 25 22 6.4 6.4 0.00 13.39 0.00 66 1021.6
20220627051653 25 45 1.6 12.9 0.00 13.39 0.00 66 1021.6
20220627051153 25 45 12.9 12.9 0.00 13.39 0.00 66 1021.6
20220627050653 25 45 4.8 11.3 0.00 13.39 0.00 65 1021.6
20220627050153 26 67 11.3 11.3 0.00 13.39 0.00 65 1021.6
20220627045653 26 67 11.3 11.3 0.00 1.19 0.00 64 1021.6
20220627045153 26 67 6.4 14.5 0.00 1.19 0.00 64 1021.6
20220627044653 26 90 14.5 14.5 0.00 1.19 0.00 64 1021.6
20220627044153 26 90 4.8 9.7 0.00 1.19 0.00 64 1021.6
20220627043653 26 67 8.0 8.0 0.00 1.19 0.00 63 1021.6
20220627043153 26 45 3.2 8.0 0.00 1.19 0.00 63 1021.6
20220627042653 27 45 8.0 12.9 0.00 1.19 0.00 63 1021.6
20220627042153 27 67 11.3 11.3 0.00 1.19 0.00 62 1021.6
20220627041653 27 67 11.3 16.1 0.00 1.19 0.00 62 1021.6
20220627041153 27 67 16.1 16.1 0.00 1.19 0.00 63 1021.6
20220627040653 27 67 12.9 12.9 0.00 1.19 0.00 64 1021.3
20220627040153 27 45 12.9 12.9 0.00 1.19 0.00 64 1021.3
20220627035653 27 45 9.7 14.5 0.00 14.40 0.00 64 1021.3
20220627035153 27 45 12.9 12.9 0.00 14.40 0.00 63 1020.9
20220627034653 27 22 11.3 11.3 0.00 14.40 0.00 63 1020.9
20220627034153 27 22 11.3 12.9 0.00 14.40 0.00 63 1021.3
20220627033653 27 22 11.3 16.1 0.00 14.40 0.00 62 1020.9
20220627033153 27 22 16.1 16.1 0.00 14.40 0.00 62 1020.6
20220627032653 27 337 11.3 16.1 0.00 14.40 0.00 62 1020.9
20220627032153 28 0 16.1 16.1 0.00 14.40 0.00 62 1020.6
20220627031653 28 45 14.5 25.7 0.00 14.40 0.00 62 1020.6
20220627031153 28 0 25.7 25.7 0.00 14.40 0.00 62 1020.6
20220627030653 28 22 9.7 24.1 0.00 14.40 0.00 62 1020.6
20220627030153 28 0 24.1 24.1 0.00 14.40 0.00 62 1020.3
20220627025653 28 22 11.3 16.1 0.00 2.21 0.00 63 1020.3
20220627025153 28 337 11.3 11.3 0.00 2.21 0.00 63 1020.3
20220627024653 28 45 8.0 19.3 0.00 2.21 0.00 63 1020.3
20220627024153 28 0 9.7 16.1 0.00 2.21 0.00 63 1020.3
20220627023653 29 22 14.5 14.5 0.00 2.21 0.00 63 1020.3
20220627023153 29 22 12.9 16.1 0.00 2.21 0.00 63 1020.3
20220627022653 29 0 6.4 11.3 0.00 2.21 0.00 63 1020.3
20220627022153 29 22 9.7 14.5 0.00 2.21 0.00 62 1020.3
20220627021653 29 0 12.9 12.9 0.00 2.21 0.00 62 1020.3
20220627021153 29 22 11.3 20.9 0.00 2.21 0.00 61 1019.9
20220627020653 30 22 9.7 16.1 0.00 2.21 0.00 61 1019.6
20220627020153 30 0 12.9 12.9 0.00 2.21 0.00 61 1019.6
20220627015654 30 0 11.3 12.9 0.00 15.42 0.00 60 1019.6
20220627015153 30 22 11.3 14.5 0.00 15.42 0.00 59 1019.3
20220627014654 31 22 14.5 22.5 0.00 15.42 0.00 60 1019.3
20220627014154 31 0 22.5 22.5 0.00 15.42 0.00 58 1018.9
20220627013654 31 0 11.3 11.3 0.00 15.42 0.00 56 1018.9
20220627013154 31 22 8.0 14.5 0.00 15.42 0.00 54 1018.9
20220627012654 31 22 12.9 12.9 0.00 15.42 0.00 53 1018.6
20220627012154 32 22 4.8 4.8 0.00 15.42 0.00 52 1018.6
20220627011654 32 22 4.8 9.7 0.00 15.42 0.00 51 1018.6
20220627011154 32 0 9.7 9.7 0.00 15.42 0.00 51 1018.2
20220627010654 32 45 9.7 17.7 0.00 15.42 0.00 50 1018.6
20220627010154 32 45 6.4 11.3 0.00 15.42 0.00 50 1018.2
20220627005654 33 0 11.3 11.3 0.00 15.42 0.00 49 1018.2
20220627005154 33 22 8.0 16.1 0.00 15.42 0.00 49 1018.6
20220627004654 33 0 9.7 19.3 0.00 15.42 0.00 49 1018.2
20220627004154 33 22 9.7 11.3 0.00 15.42 0.00 49 1018.2
20220627003654 34 0 9.7 9.7 0.00 15.42 0.00 48 1018.2
20220627003154 34 0 9.7 11.3 0.00 15.42 0.00 46 1018.2
20220627002654 34 0 9.7 11.3 0.00 15.42 0.00 45 1018.2
20220627002154 34 22 9.7 9.7 0.00 15.42 0.00 45 1018.2
20220627001654 34 0 6.4 11.3 0.00 15.42 0.00 45 1017.9
20220627001154 34 0 11.3 11.3 0.00 15.42 0.00 45 1018.2
20220627000654 33 45 11.3 11.3 0.00 15.42 0.00 43 1018.2
20220627000154 34 22 9.7 11.3 0.00 15.42 0.00 43 1017.9
20220626235654 34 22 11.3 11.3 0.00 15.42 0.00 42 1017.9
20220626235154 34 22 11.3 12.9 0.00 15.42 0.00 41 1017.9
20220626234656 35 45 9.7 11.3 0.00 15.42 0.00 41 1017.9
20220626234154 35 22 9.7 22.5 0.00 15.42 0.00 40 1017.9
20220626233654 36 45 11.3 11.3 0.00 15.42 0.00 40 1017.6
20220626233154 36 22 9.7 11.3 0.00 15.42 0.00 39 1017.6
20220626232654 36 45 9.7 19.3 0.00 15.42 0.00 39 1017.6
20220626232154 36 22 17.7 17.7 0.00 15.42 0.00 39 1017.6
20220626231654 36 0 11.3 14.5 0.00 15.42 0.00 40 1017.2
20220626231154 37 22 14.5 14.5 0.00 15.42 0.00 40 1017.2
20220626230656 37 0 12.9 12.9 0.00 15.42 0.00 39 1017.2
20220626230154 37 0 12.9 12.9 0.00 15.42 0.00 37 1016.9
20220626225654 37 22 6.4 8.0 0.00 15.42 0.00 37 1017.2
20220626225154 37 337 8.0 14.5 0.00 15.42 0.00 37 1017.2
20220626224654 37 0 11.3 11.3 0.00 15.42 0.00 37 1017.2
20220626224154 37 45 6.4 6.4 0.00 15.42 0.00 37 1017.2
20220626223654 37 22 4.8 11.3 0.00 15.42 0.00 36 1017.6
20220626223154 38 45 6.4 11.3 0.00 15.42 0.00 35 1017.2
20220626222656 38 22 11.3 12.9 0.00 15.42 0.00 35 1017.6
20220626222154 38 22 9.7 16.1 0.00 15.42 0.00 35 1017.6
20220626221654 38 337 16.1 16.1 0.00 15.42 0.00 34 1017.6
20220626221154 40 337 9.7 11.3 0.00 15.42 0.00 32 1017.6
20220626220654 40 315 11.3 11.3 0.00 15.42 0.00 32 1017.6
20220626220154 40 22 6.4 6.4 0.00 15.42 0.00 32 1017.6
20220626215654 40 22 6.4 11.3 0.00 15.42 0.00 32 1017.6
20220626215154 40 45 11.3 14.5 0.00 15.42 0.00 32 1017.9
20220626214656 40 247 1.6 4.8 0.00 15.42 0.00 31 1017.9
20220626214154 40 270 3.2 9.7 0.00 15.42 0.00 31 1017.9
20220626213654 40 0 9.7 16.1 0.00 15.42 0.00 32 1017.9
20220626213154 40 22 3.2 11.3 0.00 15.42 0.00 32 1017.9
20220626212654 40 0 11.3 16.1 0.00 15.42 0.00 31 1017.9
20220626212154 40 0 11.3 11.3 0.00 15.42 0.00 31 1017.9
20220626211654 40 22 3.2 9.7 0.00 15.42 0.00 31 1017.9
20220626211154 41 0 0.0 22.5 0.00 15.42 0.00 30 1017.9
20220626210656 40 337 3.2 3.2 0.00 15.42 0.00 31 1017.9
20220626210154 40 157 1.6 9.7 0.00 15.42 0.00 30 1017.9
20220626205654 40 22 9.7 9.7 0.00 15.42 0.00 29 1017.9
20220626205154 42 337 6.4 6.4 0.00 15.42 0.00 29 1017.9
20220626204656 42 22 0.0 8.0 0.00 15.42 0.00 30 1017.9